Radiation Dose measured at exhaust stack monitor of Fukushima Daiichi Nuclear Power Station
Date,Time,Unit 5 6 shared exhaust cylinders,Wind Direction,Wind Velocity(m/s)
2023/04/11,00:00,3.8,southwest,0.6
2023/04/11,00:10,3.7,south-southwest,0.9
2023/04/11,00:20,3.7,southwest,1.2
2023/04/11,00:30,3.6,southwest,1.8
2023/04/11,00:40,3.5,south-southwest,1.2
2023/04/11,00:50,3.8,south-southwest,1.2
2023/04/11,01:00,3.6,southwest,2.0
2023/04/11,01:10,3.7,southwest,2.0
2023/04/11,01:20,3.6,southwest,2.0
2023/04/11,01:30,3.8,southwest,1.7
2023/04/11,01:40,3.7,west-southwest,1.5
2023/04/11,01:50,3.7,west,1.5
2023/04/11,02:00,3.6,west-southwest,1.8
2023/04/11,02:10,3.7,west-southwest,2.3
2023/04/11,02:20,3.8,southwest,3.0
2023/04/11,02:30,3.7,southwest,2.8
2023/04/11,02:40,3.6,west-southwest,1.2
2023/04/11,02:50,3.7,west-northwest,0.6
2023/04/11,03:00,3.7,west-southwest,0.8
2023/04/11,03:10,3.7,west,1.7
2023/04/11,03:20,3.8,west,2.0
2023/04/11,03:30,3.6,west,2.0
2023/04/11,03:40,3.7,southwest,2.0
2023/04/11,03:50,3.7,southwest,2.0
2023/04/11,04:00,3.6,south-southwest,2.0
2023/04/11,04:10,3.9,south,1.8
2023/04/11,04:20,3.7,south,2.5
2023/04/11,04:30,3.8,south-southwest,2.9
2023/04/11,04:40,3.6,south,2.0
2023/04/11,04:50,3.7,south,1.9
2023/04/11,05:00,3.7,south,2.3
2023/04/11,05:10,3.8,south-southwest,2.6
2023/04/11,05:20,3.6,south-southwest,1.5
2023/04/11,05:30,3.8,south-southeast,1.2
2023/04/11,05:40,3.7,south-southeast,1.2
2023/04/11,05:50,3.7,south-southwest,1.2
2023/04/11,06:00,3.6,southwest,1.5
2023/04/11,06:10,3.8,southwest,2.2
2023/04/11,06:20,3.6,south,1.5
2023/04/11,06:30,3.5,south-southwest,2.0
2023/04/11,06:40,3.6,south-southwest,2.5
2023/04/11,06:50,3.7,south,2.9
2023/04/11,07:00,3.6,south,3.0
2023/04/11,07:10,3.7,south,2.9
2023/04/11,07:20,3.6,south,2.6
2023/04/11,07:30,3.6,south,3.1
2023/04/11,07:40,3.9,south,2.6
2023/04/11,07:50,3.8,south-southeast,3.5
2023/04/11,08:00,3.7,south-southeast,2.9
2023/04/11,08:10,3.7,south-southeast,3.4
2023/04/11,08:20,3.7,south,4.8
2023/04/11,08:30,3.7,south,5.1
2023/04/11,08:40,3.8,south-southeast,4.7
2023/04/11,08:50,3.6,south-southeast,4.4
2023/04/11,09:00,3.8,south-southeast,4.4
2023/04/11,09:10,3.6,south-southeast,5.4
2023/04/11,09:20,3.7,south-southeast,5.5
2023/04/11,09:30,3.7,south-southeast,7.0
2023/04/11,09:40,3.7,south-southeast,6.4
2023/04/11,09:50,3.7,south-southeast,4.3
2023/04/11,10:00,3.6,south-southeast,4.0
2023/04/11,10:10,3.6,south-southeast,6.3
2023/04/11,10:20,3.6,south-southeast,6.5
2023/04/11,10:30,3.7,south-southeast,6.8
2023/04/11,10:40,3.6,south-southeast,7.0
2023/04/11,10:50,3.7,south-southeast,7.1
2023/04/11,11:00,3.7,south-southeast,8.3
2023/04/11,11:10,3.8,south-southeast,9.1
2023/04/11,11:20,3.6,south-southeast,7.6
2023/04/11,11:30,3.8,south,6.1
2023/04/11,11:40,3.9,south-southeast,7.2
2023/04/11,11:50,3.6,south-southeast,9.4
2023/04/11,12:00,3.7,south-southeast,10.5
2023/04/11,12:10,3.7,south-southeast,9.8
2023/04/11,12:20,3.7,south,8.8
2023/04/11,12:30,3.6,south-southeast,11.3
2023/04/11,12:40,3.7,south-southeast,10.0
2023/04/11,12:50,3.7,south-southeast,11.0
2023/04/11,13:00,3.8,south-southeast,11.6
2023/04/11,13:10,3.6,south-southeast,13.3
2023/04/11,13:20,3.7,south-southeast,14.7
2023/04/11,13:30,3.8,south-southeast,13.6
2023/04/11,13:40,3.7,south,12.0
2023/04/11,13:50,3.8,south-southeast,10.9
2023/04/11,14:00,3.6,south-southeast,14.6
2023/04/11,14:10,3.7,south,12.5
2023/04/11,14:20,3.7,south,10.8
2023/04/11,14:30,3.7,south,9.4
2023/04/11,14:40,3.7,south,11.6
2023/04/11,14:50,3.6,south,12.4
2023/04/11,15:00,3.7,south,10.2
2023/04/11,15:10,3.7,south,10.2
2023/04/11,15:20,3.7,south,11.0
2023/04/11,15:30,3.7,south,12.7
2023/04/11,15:40,3.8,south-southeast,11.1
2023/04/11,15:50,3.7,south,13.3
2023/04/11,16:00,3.7,south-southeast,14.1
2023/04/11,16:10,3.5,south-southeast,15.0
2023/04/11,16:20,3.7,south-southeast,14.7
2023/04/11,16:30,3.9,south-southeast,12.7
2023/04/11,16:40,3.8,south-southeast,15.2
2023/04/11,16:50,3.8,south-southeast,14.4
2023/04/11,17:00,3.9,south-southeast,14.7
2023/04/11,17:10,3.9,south,12.2
2023/04/11,17:20,3.7,south,12.2
2023/04/11,17:30,3.6,south,11.9
2023/04/11,17:40,3.7,south,11.9
2023/04/11,17:50,3.8,south,11.3
2023/04/11,18:00,3.7,south,9.0
2023/04/11,18:10,3.9,south,8.7
2023/04/11,18:20,3.8,south,9.8
2023/04/11,18:30,3.7,south,9.3
2023/04/11,18:40,3.6,south,8.9
2023/04/11,18:50,3.6,south-southeast,8.8
2023/04/11,19:00,3.6,south,9.0
2023/04/11,19:10,3.6,south-southeast,9.0
2023/04/11,19:20,3.6,south,6.9
2023/04/11,19:30,3.6,south-southeast,6.4
2023/04/11,19:40,3.7,south,5.8
2023/04/11,19:50,3.7,south,3.3
2023/04/11,20:00,3.7,south,2.9
2023/04/11,20:10,3.7,south-southwest,2.6
2023/04/11,20:20,3.7,south,4.4
2023/04/11,20:30,3.7,south-southeast,6.2
2023/04/11,20:40,3.5,south,7.6
2023/04/11,20:50,3.6,south,9.0
2023/04/11,21:00,3.7,south,8.5
2023/04/11,21:10,3.5,south,10.0
2023/04/11,21:20,3.6,south,10.5
2023/04/11,21:30,3.6,south,10.2
2023/04/11,21:40,3.6,south,10.6
2023/04/11,21:50,3.7,south,8.9
2023/04/11,22:00,3.7,south,10.5
2023/04/11,22:10,3.6,south,10.7
2023/04/11,22:20,3.7,south,10.0
2023/04/11,22:30,3.7,south,8.6
2023/04/11,22:40,3.7,south,6.6
2023/04/11,22:50,3.6,south,6.7
2023/04/11,23:00,3.6,south,6.1
2023/04/11,23:10,3.5,south-southeast,7.5
2023/04/11,23:20,3.7,south,8.0
2023/04/11,23:30,3.5,south-southeast,8.2
2023/04/11,23:40,3.5,south,7.4
2023/04/11,23:50,3.7,south,7.0
